METEOR 2-11 DEB, 60006

Orbit data source: Space-Track

METEOR 2-11 DEB, 60006 is space debris in LEO originally from a launch on Thu, 05 Jul 1984 UTC launched from the Plesetsk Missile And Space Complex (PKMTR). Debris objects in space refer to the collection of defunct objects orbiting the Earth. Examples of debris include non-operational satellites, rocket bodies, and fragments generated from explosions, collisions, or faulty payload assembly.

Loading next visibility...
Identifier
60006, 1984-072AB
Orbit
LEO
Last TLE update
6 days ago
Origin
Manufacturer
Unknown
Mission
Spacecraft
Bus & Motor
Unknown
Mass
Unknown
Launch date (UTC)
1984-07-05 (41 years ago)
Launch vehicle
Unknown
Launch site
Plesetsk Missile And Space Complex (PKMTR)
Object type
Payload
Rocket body
Debris
Shape & HBR
Unknown
Radar Cross Section
Small (<0.1 m²)

Expand to show TLE details & history

TLE from 6 days ago
0 METEOR 2-11 DEB
1 60006U 84072AB  25122.84943786  .00004278  00000-0  30451-2 0  9990
2 60006  82.5287 342.8045 0018047 358.4895   1.6215 13.97170853373365
Epoch: 2025-05-02T20:23Z
Definitive object data (Epoch: 2025-05-02T20:23:11.431Z)
Latitude
0.00003°
Longitude
176.00673°
Altitude
893.389 km
Speed
7.412 km/s
True Right ascension
22h 51m 13s
True Declination
0° 00' 00"
Sunlit
Object was in daylight at TLE epoch
Visualization TLE readout
Latitude
27.51461°
Longitude
-13.10028°
Altitude
919.815 km
Speed
7.388 km/s
Apparent Right ascension
07h 08m 30s
Apparent Declination
-7° 01' 18"
Sunlit
Object is in daylight
Visualization observer readout
Local Sidereal Time
14:13:25
Azimuth
275.051° WNW
Elevation
-16.929°
Doppler factor
1
Orbital elements
Apogee altitude
913.879 km
Perigee altitude
887.607 km
Semi-major axis
7,278.88 km
Eccentricity
0.0018047
Inclination
82.5287°
RAAN
342.8045°
Arg. of periapsis
358.4895°
True anomaly
1.62737°
Mean anomaly
1.6215°
Eccentric anomaly
1.62443°
Mean motion
3.49499 °/min
BSTAR
0.0030451
Orbital period
103 mins
Loading maneuver chart data...
Loading SW <> Apogee altitude chart data...
Loading historical data...
Loading historical data...
Loading historical data...
Loading historical data...
Loading historical data...
Loading historical data...
Loading historical data...

METEOR 2-11 DEB Visibility forecast

Observer location: undefined°, undefined°

Span
Click to sort rows by Start time (UTC) header in descending order
Start Az.
Max El. time (UTC)
Max El. Az.
Max El.
End time (UTC)
End Az.
10 mins2025-05-09 14:02:38.635Z160.468° S2025-05-09 14:07:38.635Z101.126° ESE34.49°2025-05-09 14:12:38.635Z24.175° NE
8 mins2025-05-09 15:48:38.635Z243.924° WSW2025-05-09 15:51:38.635Z281.445° WNW22.32°2025-05-09 15:56:38.635Z341.067° N
9 mins2025-05-10 00:50:38.635Z19.306° NNE2025-05-10 00:54:38.635Z72.318° E27.31°2025-05-10 00:59:38.635Z133.921° SE
9 mins2025-05-10 02:34:38.635Z327.206° NNW2025-05-10 02:38:38.635Z270.001° WNW29.916°2025-05-10 02:43:38.635Z208.708° SW
|